TimePST,TemperatureF,Dew PointF,Humidity,Sea Level PressureIn,VisibilityMPH,Wind Direction,Wind SpeedMPH,Gust SpeedMPH,PrecipitationIn,Events,Conditions,WindDirDegrees,DateUTC
12:15 AM,23.0,15.8,74,30.40,10.0,NNE,9.2,-,N/A,,Overcast,30,2013-12-11 08:15:00
12:35 AM,23.0,14.0,68,30.40,10.0,NNE,10.4,-,N/A,,Overcast,30,2013-12-11 08:35:00
12:55 AM,23.0,15.8,74,30.40,10.0,NNE,8.1,-,N/A,,Overcast,30,2013-12-11 08:55:00
1:15 AM,23.0,15.8,74,30.40,10.0,NNE,10.4,-,N/A,,Overcast,30,2013-12-11 09:15:00
1:35 AM,23.0,15.8,74,30.40,10.0,NE,8.1,-,N/A,,Overcast,40,2013-12-11 09:35:00
1:55 AM,23.0,15.8,74,30.40,10.0,NNE,9.2,-,N/A,,Overcast,30,2013-12-11 09:55:00
2:15 AM,23.0,15.8,74,30.40,10.0,NNE,9.2,-,N/A,,Overcast,30,2013-12-11 10:15:00
2:35 AM,23.0,15.8,74,30.40,10.0,NNE,9.2,-,N/A,,Overcast,30,2013-12-11 10:35:00
2:55 AM,23.0,15.8,74,30.40,10.0,NNE,10.4,-,N/A,,Overcast,30,2013-12-11 10:55:00
3:15 AM,23.0,15.8,74,30.40,10.0,NE,9.2,-,N/A,,Overcast,40,2013-12-11 11:15:00
3:35 AM,23.0,15.8,74,30.39,10.0,NNE,6.9,-,N/A,,Overcast,30,2013-12-11 11:35:00
3:55 AM,23.0,15.8,74,30.39,10.0,NE,6.9,-,N/A,,Overcast,40,2013-12-11 11:55:00
4:15 AM,23.0,15.8,74,30.38,10.0,ENE,8.1,-,N/A,,Overcast,60,2013-12-11 12:15:00
4:35 AM,23.0,15.8,74,30.38,10.0,NE,8.1,-,N/A,,Overcast,40,2013-12-11 12:35:00
4:55 AM,23.0,17.6,80,30.38,10.0,NE,6.9,-,N/A,,Overcast,50,2013-12-11 12:55:00
5:15 AM,23.0,15.8,74,30.38,10.0,NE,8.1,-,N/A,,Overcast,40,2013-12-11 13:15:00
5:35 AM,23.0,17.6,80,30.38,10.0,NE,8.1,-,N/A,,Overcast,50,2013-12-11 13:35:00
5:55 AM,23.0,17.6,80,30.38,10.0,NE,9.2,-,N/A,,Overcast,50,2013-12-11 13:55:00
6:15 AM,23.0,17.6,80,30.38,10.0,ENE,8.1,-,N/A,,Overcast,60,2013-12-11 14:15:00
6:35 AM,24.8,17.6,74,30.38,10.0,NNE,9.2,-,N/A,,Overcast,30,2013-12-11 14:35:00
6:55 AM,24.8,17.6,74,30.38,10.0,NE,10.4,-,N/A,,Overcast,40,2013-12-11 14:55:00
7:15 AM,24.8,17.6,74,30.38,10.0,NE,6.9,-,N/A,,Overcast,50,2013-12-11 15:15:00
7:35 AM,24.8,17.6,74,30.38,10.0,NE,8.1,-,N/A,,Overcast,50,2013-12-11 15:35:00
7:55 AM,24.8,17.6,74,30.38,10.0,ENE,6.9,-,N/A,,Overcast,60,2013-12-11 15:55:00
8:15 AM,24.8,17.6,74,30.38,10.0,NE,5.8,-,N/A,,Overcast,50,2013-12-11 16:15:00
11:15 AM,28.4,19.4,69,30.39,10.0,NNE,8.1,-,N/A,,Overcast,30,2013-12-11 19:15:00
11:35 AM,28.4,21.2,74,30.38,10.0,NE,6.9,-,N/A,,Overcast,40,2013-12-11 19:35:00
11:55 AM,28.4,21.2,74,30.38,10.0,NNE,5.8,-,N/A,,Overcast,30,2013-12-11 19:55:00
12:15 PM,30.2,21.2,69,30.38,10.0,NNE,4.6,-,N/A,,Overcast,30,2013-12-11 20:15:00
12:35 PM,30.2,21.2,69,30.37,10.0,NNE,6.9,-,N/A,,Overcast,30,2013-12-11 20:35:00
12:55 PM,30.2,21.2,69,30.37,10.0,NE,5.8,-,N/A,,Overcast,50,2013-12-11 20:55:00
1:15 PM,30.2,21.2,69,30.37,10.0,NNE,5.8,-,N/A,,Overcast,30,2013-12-11 21:15:00
1:35 PM,32.0,23.0,69,30.36,10.0,NNE,4.6,-,N/A,,Overcast,30,2013-12-11 21:35:00
1:55 PM,33.8,23.0,65,30.35,10.0,Calm,Calm,-,N/A,,Overcast,0,2013-12-11 21:55:00
2:15 PM,33.8,21.2,60,30.35,10.0,NNE,4.6,-,N/A,,Overcast,20,2013-12-11 22:15:00
2:35 PM,33.8,23.0,65,30.34,10.0,NNE,3.5,-,N/A,,Overcast,20,2013-12-11 22:35:00
2:55 PM,33.8,23.0,65,30.34,10.0,NNE,5.8,-,N/A,,Mostly Cloudy,20,2013-12-11 22:55:00
3:15 PM,32.0,23.0,69,30.34,10.0,NNE,6.9,-,N/A,,Mostly Cloudy,20,2013-12-11 23:15:00
3:35 PM,32.0,23.0,69,30.34,10.0,NNE,3.5,-,N/A,,Overcast,20,2013-12-11 23:35:00
3:55 PM,30.2,21.2,69,30.33,10.0,NNE,6.9,-,N/A,,Overcast,30,2013-12-11 23:55:00
4:15 PM,30.2,21.2,69,30.33,10.0,NNE,5.8,-,N/A,,Overcast,20,2013-12-12 00:15:00
4:35 PM,30.2,23.0,75,30.34,10.0,North,5.8,-,N/A,,Overcast,10,2013-12-12 00:35:00
4:55 PM,30.2,21.2,69,30.35,10.0,NNE,9.2,-,N/A,,Overcast,30,2013-12-12 00:55:00
5:15 PM,30.2,23.0,75,30.34,10.0,ENE,5.8,-,N/A,,Overcast,60,2013-12-12 01:15:00
5:35 PM,28.4,21.2,74,30.34,10.0,ENE,4.6,-,N/A,,Overcast,60,2013-12-12 01:35:00
5:55 PM,28.4,21.2,74,30.34,10.0,NNE,5.8,-,N/A,,Overcast,20,2013-12-12 01:55:00
6:15 PM,28.4,21.2,74,30.34,10.0,NNE,5.8,-,N/A,,Overcast,30,2013-12-12 02:15:00
6:35 PM,28.4,23.0,80,30.34,10.0,Calm,Calm,-,N/A,,Overcast,0,2013-12-12 02:35:00
6:55 PM,28.4,21.2,74,30.33,10.0,Calm,Calm,-,N/A,,Overcast,0,2013-12-12 02:55:00
7:15 PM,28.4,21.2,74,30.32,10.0,Calm,Calm,-,N/A,,Overcast,0,2013-12-12 03:15:00
7:35 PM,28.4,23.0,80,30.31,10.0,Calm,Calm,-,N/A,,Overcast,0,2013-12-12 03:35:00
7:55 PM,28.4,23.0,80,30.31,10.0,North,3.5,-,N/A,,Overcast,10,2013-12-12 03:55:00
8:15 PM,28.4,24.8,86,30.31,10.0,NNE,4.6,-,N/A,,Overcast,20,2013-12-12 04:15:00
8:35 PM,28.4,24.8,86,30.30,10.0,Calm,Calm,-,N/A,,Scattered Clouds,0,2013-12-12 04:35:00
8:55 PM,26.6,23.0,86,30.30,10.0,NNE,4.6,-,N/A,,Partly Cloudy,20,2013-12-12 04:55:00
9:15 PM,26.6,21.2,80,30.30,10.0,NNE,6.9,-,N/A,,Clear,30,2013-12-12 05:15:00
9:35 PM,26.6,23.0,86,30.30,10.0,NE,5.8,-,N/A,,Clear,40,2013-12-12 05:35:00
9:55 PM,26.6,23.0,86,30.31,10.0,NNE,11.5,-,N/A,,Clear,20,2013-12-12 05:55:00
10:15 PM,26.6,21.2,80,30.31,10.0,NNE,8.1,-,N/A,,Clear,20,2013-12-12 06:15:00
10:35 PM,26.6,23.0,86,30.30,10.0,NE,9.2,-,N/A,,Clear,40,2013-12-12 06:35:00
10:55 PM,24.8,21.2,86,30.30,10.0,NE,9.2,-,N/A,,Clear,40,2013-12-12 06:55:00
11:15 PM,24.8,21.2,86,30.30,10.0,NE,8.1,-,N/A,,Clear,40,2013-12-12 07:15:00
11:35 PM,24.8,21.2,86,30.30,10.0,NE,8.1,-,N/A,,Clear,40,2013-12-12 07:35:00
11:55 PM,24.8,21.2,86,30.29,10.0,NE,8.1,-,N/A,,Clear,40,2013-12-12 07:55:00